GOES 18

Last updated on Sat Aug 22 2026 00:02:40 GMT+0000 (Coordinated Universal Time)

1 51850U 22021A 26233.50461713 .00000094 00000+0 00000+0 0 9990 2 51850 0.0293 313.5219 0000409 225.9522 195.0046 1.00272612 7248
UTC large
Height (km)
Speed (km/s)
/
Latitude / Longitude
Inclination (degrees)
Orbital Period (minutes)
Azimuth
Elevation
Range (km)
Doppler Factor

Next 0 passes for location: London (51.5072 / 0.1276)

No passes found over London.
GOES 18